Location: *
(47.6569°N, 7.4256°E)
Time: 20:59:19
(UTC+00:00)

USA 229 DEB - Pass Details

Date: 14 December 2019
Orbit: 995 x 1217 km, 63.4° (Epoch: 19 January)

Event Time Altitude Azimuth Distance (km) Brightness Sun altitude
Rises 18:39:59 0° 318° (NW) 3,953 7.2 -29.4°
Reaches altitude 10° 18:42:38 10° 316° (NW) 3,023 6.5 -29.8°
Maximum altitude 18:49:49 66° 236° (SW) 1,268 4.1 -31.0°
Enters shadow 18:52:34 41° 170° (S) 1,664 4.5 -31.5°
